Regional Weather Roundup
Issued by NWS Northern Indiana

Home | Current Version | Previous Version | Graphics & Text | Print | Product List | Glossary On
Versions: 1 2 3 4 5 6 7 8 9 10 11 12 13 14 15 16 17 18 19 20 21 22 23 24 25 26 27 28 29 30 31 32 33 34 35 36 37 38 39 40 41 42 43 44 45 46 47 48 49 50
000
ASUS43 KIWX 212110
RWRIWX

KIWX WEATHER ROUNDUP
NATIONAL WEATHER SERVICE NORTHERN INDIANA
500 PM EDT SUN SEP 21 2014

NOTE: "FAIR" INDICATES FEW OR NO CLOUDS BELOW 12,000 FEET WITH NO
SIGNIFICANT WEATHER AND/OR OBSTRUCTIONS TO VISIBILITY.

* THESE STATIONS ARE NOT UNDER NWS QUALITY CONTROL. THEY ALSO MAY NOT
  REPORT WEATHER SUCH AS PRECIPITATION OR FOG.

INZ001>027-212200-
NORTHERN INDIANA

CITY           SKY/WX    TMP DP  RH WIND       PRES   REMARKS
GARY*          PTSUNNY   64  52  63 N12G23    29.97R
VALPARAISO     PTSUNNY   61  50  67 N15G23    29.96R
MICHIGAN CITY* PTSUNNY   61  46  59 N20G25    29.96R
LAPORTE*       PTSUNNY   60  49  65 N21G30    29.96R
KNOX*          CLOUDY    60  49  67 N13G18    29.95R
SOUTH BEND     CLOUDY    59  49  69 N23G32    29.94R
GOSHEN         CLOUDY   N/A N/A N/A NW18G30   29.91R
MONTICELLO*    DRIZZLE   60  53  76 N14G21    29.95R
LOGANSPORT*    PTSUNNY   59  50  72 N15G25    29.95R
ROCHESTER*     PTSUNNY   61  54  77 NW14G25   29.94R
WARSAW*        PTSUNNY   61  52  72 NW20G31   29.91R
ANGOLA*        CLOUDY    61  52  72 NW17      29.85R
FORT WAYNE     PTSUNNY   62  53  72 W13G26    29.89R
HUNTINGTON*    PTSUNNY   60  54  78 NW12G21   29.90R
PERU/GRISSOM   CLOUDY    61  52  72 N18G33    29.94R
MARION*        MOSUNNY   65  48  54 NW14      29.92F

$$
INZ028>050-212200-
CENTRAL INDIANA

CITY           SKY/WX    TMP DP  RH WIND       PRES   REMARKS
LAFAYETTE      MOSUNNY   64  51  62 NW10      29.96R
KOKOMO*        PTSUNNY   64  50  59 NW20      29.93S
MUNCIE*        CLOUDY    67  47  48 NW15G32   29.91R
INDIANAPOLIS   PTSUNNY   67  48  50 NW20      29.94R

$$
MIZ043>046-050>051-056>058-064>065-071>073-077>080-212200-
SOUTHWEST LOWER MICHIGAN

CITY           SKY/WX    TMP DP  RH WIND       PRES   REMARKS
BATTLE CREEK   CLOUDY    60  51  72 NW21G36   29.86R
BENTON HARBOR  CLOUDY    57  49  74 NW12G24   29.94R
COLDWATER*     CLOUDY    60  53  75 NW14G22   29.84R
HILLSDALE*     PTSUNNY   62  53  73 NW20G26   29.81R
HOLLAND        CLOUDY    59  50  72 NW14G26   29.93R
GRAND RAPIDS   CLOUDY    58  52  80 NW15G24   29.89R
KALAMAZOO      CLOUDY    59  49  69 NW24G32   29.88R
STURGIS*       CLOUDY    57  52  82 NW17G26   29.87R
THREE RIVERS*  CLOUDY    59  51  76 NW17G28   29.88R

$$
OHZ001>008-015>018-024>025-212200-
NORTHWEST OHIO

CITY           SKY/WX    TMP DP  RH WIND       PRES   REMARKS
WAUSEON*       PTSUNNY   66  52  59 W16G25    29.80R
DEFIANCE       MOSUNNY  N/A N/A N/A W8G17     29.83R
FINDLAY        LGT RAIN  65  51  60 W25G36    29.81R
TOLEDO EXPRESS CLOUDY    65  53  65 W15       29.78S
TOLEDO METCALF PTSUNNY   65  51  60 W22G31    29.78R
LIMA           CLOUDY    66  50  56 NW21G31   29.85R

$$
AND FOR LAKE MICHIGAN COASTAL AND OPEN LAKE BUOY OBSERVATIONS

STATION/POSITION TEMP    WIND        PRES    VSBY  WAVE
                 AIR SEA DIR/SP/G                  HT/PER
                 (F)     (DEG/KT/KT) (MB)    (MI)  (FT/S)
CALUMET HARBOR    62     340/ 11/ 14 1013.6R
MICHIGAN CITY     60     330/ 26/ 31   N/A
SAINT JOSEPH      60     330/ 17/ 23 1014.2S
SOUTH LAKE BUOY   58 62  340/ 23/ 27 1014.0R         9/ 8
4 MI NW BRIDGMAN  60 65  350/ 25/ 33   N/A          10/ 7
MICHIGAN CITY     60 64  350/ 19/ 25   N/A           8/ 7

$$
&&



USA.gov is the U.S. government's official web portal to all federal, state and local government web resources and services.